Temp
4 4 3 3 2 2 2 2 2 2 2 2 2 2 2 2 2 2 2 2 2 3 3 2 2 3 3 2 3 3 2 3 3 2 2 3 2 1 1 1 2 1 1
4 4 3 3 2 2 3 3 2 2 3 2 2 2 2 2 3 3 3 3 3 3 3 3 3 2 3 3 3 4 3 2 3 2 2 2 2 2 1 1 1 1 1
4 4 4 3 3 3 3 3 2 2 2 2 2 2 2 2 3 3 3 3 3 3 3 3 3 3 3 2 2 2 3 2 2 2 3 3 2 2 1 1 1 1 1
5 4 4 3 3 3 3 3 3 3 2 2 2 2 2 3 2 2 3 3 3 3 3 3 3 3 3 2 2 2 2 3 3 2 2 2 2 1 1 1 1 1 2
5 4 4 3 3 3 3 3 3 3 3 3 2 3 2 2 2 2 2 3 3 3 3 3 3 3 2 2 2 2 2 2 2 2 2 1 1 1 1 1 1 1 2
5 4 4 3 3 3 3 3 3 2 3 3 3 3 3 3 2 2 3 2 2 2 3 3 3 2 2 2 2 2 2 2 2 2 1 1 1 1 2 2 2 2 3
5 5 5 4 4 3 3 3 3 3 3 3 3 2 2 2 2 2 2 2 3 2 3 3 3 2 2 2 2 2 1 1 2 1 1 2 2 3 3 3 3 2 2
6 6 5 4 4 3 3 3 3 3 3 3 3 3 3 2 2 2 2 2 3 3 3 3 2 2 2 1 1 1 2 2 1 2 3 3 3 3 3 2 2 2 2
6 6 6 5 4 4 3 3 3 3 3 3 3 3 3 2 1 2 2 3 3 3 2 2 3 2 1 2 2 2 2 2 3 3 3 2 2 2 2 2 2 2 3
7 6 5 5 5 5 4 4 4 4 3 3 3 3 3 2 2 2 2 2 2 2 1 2 2 2 2 2 2 2 2 2 2 2 2 2 2 2 2 2 2 2 2
8 7 6 6 5 5 4 4 4 4 4 4 4 3 3 2 2 2 2 2 2 2 1 2 2 2 2 2 2 2 2 2 2 2 2 2 2 2 2 2 2 2 2
8 8 7 6 5 5 5 5 4 5 5 4 4 4 4 3 3 3 3 3 2 2 2 2 2 2 2 2 2 2 2 2 2 2 2 2 2 2 2 2 2 2 2
8 8 8 7 6 5 5 5 5 5 5 5 5 5 5 5 4 4 4 4 3 3 3 3 3 3 3 3 3 3 2 2 2 2 2 2 2 2 2 2 2 2 1
9 8 8 8 8 7 7 6 6 6 6 6 5 5 6 5 6 6 5 5 5 5 5 4 4 4 3 3 3 3 2 2 2 2 2 2 2 2 2 2 2 1 1
9 8 8 8 8 8 7 7 6 6 6 6 6 6 6 6 6 6 6 5 5 5 5 5 5 4 4 4 3 3 3 3 2 2 2 2 2 2 2 2 1 1 1
9 9 8 8 8 8 7 7 7 7 7 7 7 7 6 6 6 6 5 5 5 5 5 5 5 4 4 4 3 3 3 3 2 2 2 2 2 2 2 1 1 1 -0
9 9 8 8 8 8 8 8 7 7 7 7 7 7 7 7 6 6 6 6 5 5 5 4 4 4 4 3 3 3 3 2 2 2 2 2 2 2 1 1 1 0 -0
8 8 8 8 8 8 8 8 7 7 7 7 7 7 7 7 7 7 6 6 6 6 5 5 5 4 3 3 3 3 2 2 2 2 2 2 1 1 1 1 1 -0 -1
8 8 8 8 8 8 8 8 8 8 7 7 7 7 7 7 7 7 7 7 7 6 6 5 4 4 4 3 2 2 2 2 2 1 1 2 1 1 1 1 0 -0 -1
9 9 9 9 8 8 8 8 8 8 8 8 8 7 7 7 7 7 7 6 6 6 6 6 5 4 4 3 3 2 2 2 2 2 2 2 1 1 1 -0 -0 -1 -1
9 9 9 9 9 9 8 8 8 8 8 8 8 7 7 7 6 6 6 6 6 6 6 5 5 5 4 4 3 3 3 2 2 2 1 1 1 0 -1 -1 -0 -1 -1
9 9 9 9 9 9 9 9 8 8 8 8 7 7 7 7 7 7 7 7 6 6 5 5 5 5 4 4 3 3 2 2 2 1 1 1 -1 -3 -2 -2 -2 -2 -3
8 9 8 8 8 8 9 8 8 8 8 8 7 7 7 7 7 7 7 6 6 6 6 5 5 5 4 4 3 3 2 0 2 1 1 0 1 -2 -2 -2 -2 -2 -4
9 8 8 8 8 8 8 8 8 8 8 7 7 6 7 7 7 7 6 6 6 5 5 5 5 5 5 5 4 3 1 1 1 -0 1 0 -0 -1 -2 -2 -2 -4 -5
8 8 8 7 7 7 7 8 8 8 8 7 7 6 6 6 7 6 6 6 5 5 5 5 5 4 4 4 4 3 3 2 1 1 0 -1 -1 -2 -2 -2 -2 -5 -7
8 8 8 8 7 7 7 7 7 7 7 7 7 6 6 6 6 6 6 5 5 5 5 4 4 4 4 4 4 4 3 3 2 0 1 -1 -1 -2 -2 -2 -5 -6 -7
Height
3058 3058 3058 3057 3055 3053 3052 3051 3051 3051 3053 3054 3056 3058 3059 3061 3062 3064 3065 3067 3068 3070 3072 3076 3078 3081 3083 3086 3092 3096 3099 3105 3109 3111 3117 3122 3126 3132 3137 3141 3148 3151 3156
3057 3057 3057 3057 3055 3053 3052 3051 3051 3052 3054 3056 3058 3060 3061 3063 3065 3067 3069 3070 3072 3073 3075 3078 3079 3082 3085 3088 3091 3094 3100 3105 3108 3115 3118 3123 3128 3134 3139 3142 3148 3153 3157
3057 3058 3058 3057 3056 3054 3054 3054 3054 3054 3055 3057 3059 3061 3063 3065 3067 3069 3072 3074 3075 3076 3077 3079 3082 3084 3087 3089 3090 3093 3099 3105 3111 3116 3119 3123 3127 3134 3139 3144 3150 3154 3158
3057 3058 3058 3059 3058 3057 3057 3057 3056 3056 3058 3060 3061 3063 3065 3068 3070 3072 3074 3076 3077 3079 3080 3082 3084 3086 3089 3091 3094 3099 3102 3107 3112 3117 3121 3123 3131 3136 3141 3146 3150 3156 3161
3057 3058 3059 3060 3060 3060 3061 3061 3061 3061 3062 3063 3064 3066 3068 3070 3072 3074 3076 3077 3079 3081 3083 3086 3087 3089 3091 3094 3098 3102 3106 3110 3113 3119 3123 3129 3133 3139 3144 3149 3153 3157 3159
3058 3059 3060 3061 3062 3062 3064 3064 3064 3065 3066 3067 3068 3069 3070 3072 3074 3075 3077 3079 3080 3083 3086 3088 3090 3093 3096 3098 3101 3104 3108 3113 3116 3121 3128 3134 3138 3141 3145 3149 3153 3156 3159
3059 3060 3061 3063 3064 3064 3066 3067 3068 3068 3068 3069 3070 3071 3072 3074 3075 3077 3077 3079 3082 3085 3088 3091 3093 3096 3099 3101 3104 3107 3112 3117 3123 3128 3132 3135 3139 3143 3146 3150 3153 3156 3159
3060 3061 3063 3065 3066 3066 3067 3069 3070 3070 3071 3072 3072 3073 3074 3076 3077 3079 3080 3081 3084 3087 3089 3093 3097 3100 3102 3107 3109 3112 3117 3122 3125 3128 3132 3136 3140 3144 3148 3152 3155 3158 3160
3061 3063 3064 3066 3068 3069 3070 3071 3072 3072 3073 3074 3075 3076 3077 3077 3076 3080 3082 3083 3086 3089 3092 3096 3099 3101 3106 3110 3115 3118 3121 3124 3128 3132 3135 3139 3143 3147 3151 3154 3157 3158 3159
3062 3065 3067 3069 3070 3071 3072 3073 3074 3075 3075 3076 3078 3079 3080 3082 3083 3084 3087 3089 3090 3091 3094 3099 3103 3107 3110 3115 3118 3121 3124 3128 3133 3137 3139 3142 3146 3149 3152 3154 3156 3157 3158
3062 3065 3067 3070 3072 3074 3075 3076 3076 3077 3078 3079 3080 3082 3083 3085 3087 3089 3090 3092 3094 3097 3099 3103 3107 3110 3113 3118 3121 3124 3128 3132 3136 3139 3143 3146 3149 3151 3153 3154 3156 3155 3155
3063 3065 3067 3070 3072 3074 3076 3077 3079 3080 3081 3082 3084 3085 3087 3088 3090 3093 3094 3096 3099 3102 3105 3108 3111 3113 3116 3119 3122 3126 3129 3133 3138 3141 3144 3147 3149 3150 3152 3153 3153 3153 3154
3063 3065 3067 3070 3072 3074 3076 3078 3080 3082 3083 3085 3087 3089 3091 3092 3094 3095 3098 3100 3102 3104 3108 3111 3114 3117 3119 3122 3126 3129 3132 3135 3139 3142 3144 3146 3147 3149 3150 3151 3151 3150 3150
3062 3064 3067 3069 3072 3073 3076 3078 3080 3083 3085 3086 3088 3090 3093 3095 3097 3099 3101 3104 3106 3107 3109 3112 3115 3117 3121 3123 3127 3130 3133 3136 3139 3141 3142 3144 3145 3146 3146 3146 3146 3146 3145
3061 3063 3066 3068 3072 3074 3075 3078 3080 3082 3084 3087 3089 3091 3093 3096 3099 3101 3103 3106 3108 3110 3112 3114 3116 3119 3121 3124 3127 3130 3133 3136 3138 3139 3141 3141 3142 3143 3143 3142 3141 3140 3138
3059 3061 3064 3067 3070 3073 3075 3077 3079 3081 3084 3086 3088 3091 3094 3096 3098 3101 3103 3105 3107 3109 3112 3114 3117 3119 3122 3124 3127 3130 3132 3134 3136 3137 3138 3138 3139 3139 3138 3137 3136 3134 3131
3057 3060 3062 3064 3068 3071 3074 3077 3078 3080 3082 3085 3088 3091 3093 3095 3098 3100 3101 3103 3105 3107 3110 3112 3114 3117 3120 3123 3125 3128 3131 3132 3133 3134 3135 3135 3134 3134 3133 3131 3129 3126 3124
3056 3059 3061 3063 3066 3070 3072 3075 3078 3080 3082 3084 3087 3090 3092 3094 3096 3097 3099 3101 3103 3105 3108 3110 3113 3115 3117 3120 3122 3125 3127 3127 3129 3129 3130 3130 3129 3128 3126 3124 3121 3119 3117
3053 3057 3059 3062 3064 3067 3070 3072 3075 3077 3080 3082 3084 3087 3089 3091 3093 3094 3096 3098 3100 3102 3105 3107 3109 3111 3113 3115 3117 3119 3121 3122 3123 3123 3124 3123 3123 3122 3119 3117 3115 3113 3111
3050 3053 3056 3059 3062 3064 3067 3070 3072 3074 3076 3078 3080 3083 3084 3086 3088 3090 3093 3094 3096 3099 3101 3103 3104 3106 3108 3110 3112 3113 3114 3115 3116 3117 3117 3116 3115 3114 3113 3111 3109 3107 3105
3045 3049 3051 3054 3056 3060 3063 3065 3068 3070 3072 3074 3076 3078 3079 3081 3084 3085 3087 3089 3091 3094 3095 3097 3099 3101 3102 3103 3104 3106 3107 3108 3109 3109 3109 3109 3108 3105 3104 3103 3100 3094 3095
3040 3044 3046 3048 3051 3053 3057 3059 3062 3065 3067 3069 3071 3072 3074 3075 3077 3079 3081 3083 3085 3087 3089 3091 3092 3094 3096 3097 3098 3099 3099 3100 3101 3101 3100 3099 3095 3092 3092 3092 3087 3088 3085
3035 3038 3041 3043 3045 3048 3050 3052 3055 3057 3061 3063 3065 3067 3068 3070 3071 3073 3074 3076 3077 3079 3081 3083 3085 3087 3087 3088 3089 3091 3091 3089 3091 3091 3089 3087 3084 3081 3081 3081 3079 3076 3079
3027 3030 3034 3037 3039 3041 3043 3046 3047 3049 3052 3055 3058 3060 3061 3063 3065 3066 3068 3069 3070 3071 3073 3074 3075 3077 3078 3079 3079 3079 3079 3079 3077 3079 3080 3077 3076 3073 3071 3070 3068 3070 3071
3019 3023 3027 3029 3032 3034 3037 3039 3041 3043 3044 3047 3051 3053 3055 3056 3057 3060 3061 3062 3063 3065 3066 3067 3069 3069 3069 3070 3070 3070 3069 3069 3069 3069 3068 3066 3063 3060 3062 3060 3059 3063 3068
3012 3016 3019 3023 3026 3028 3030 3032 3034 3037 3041 3042 3044 3046 3047 3049 3051 3052 3054 3054 3056 3057 3057 3058 3059 3059 3059 3059 3060 3059 3058 3059 3059 3060 3059 3054 3053 3053 3053 3053 3053 3058 3065
Wind_Speed
7 5 1 1 3 9 8 1 5 10 11 11 12 10 10 9 10 10 8 10 9 11 13 13 13 19 14 27 18 17 22 22 20 20 18 17 30 30 34 23 23 21 14
5 2 0 2 6 8 5 4 8 11 13 14 13 11 10 10 11 12 14 10 11 12 14 13 14 14 13 19 19 20 20 21 13 24 19 21 26 26 25 28 24 19 12
4 3 2 4 6 7 6 8 10 13 13 14 15 13 10 13 14 13 11 9 9 12 15 13 14 12 15 18 16 19 26 24 17 23 19 21 30 26 19 13 16 14 11
4 5 4 7 9 10 10 11 14 16 14 14 14 14 14 14 15 16 14 11 10 13 11 13 14 14 13 14 19 22 25 20 18 17 18 22 27 18 15 17 16 15 11
6 7 7 9 11 14 15 15 16 17 17 15 12 12 13 14 15 15 13 12 12 14 14 13 13 15 18 17 21 17 18 16 20 24 17 16 23 23 19 17 16 14 12
8 9 10 11 15 15 15 14 14 15 15 14 12 11 11 11 14 14 12 10 11 14 15 9 12 19 17 19 17 20 19 19 21 23 29 22 20 18 16 15 15 14 13
11 12 13 12 15 13 11 11 12 13 12 11 12 10 11 14 13 8 6 13 12 15 12 12 13 18 15 10 15 21 30 32 26 20 19 18 17 17 18 17 15 14 12
14 15 15 11 14 14 15 14 12 10 10 12 11 11 9 8 10 8 12 11 17 12 15 16 18 14 17 28 27 34 26 21 24 23 23 22 21 20 19 17 14 11 8
15 17 17 15 13 14 13 11 10 9 8 8 13 13 13 11 17 19 13 13 13 14 18 20 14 23 35 24 24 23 24 22 21 22 24 24 22 19 16 14 10 6 2
15 17 17 15 12 12 11 9 7 8 8 10 12 14 18 16 20 16 17 21 19 16 23 20 28 26 22 24 25 24 23 22 23 22 21 20 18 16 12 8 4 2 1
13 15 17 15 13 11 9 8 7 7 9 12 12 14 16 15 14 18 22 14 10 16 25 26 26 25 21 26 26 26 27 25 23 21 18 17 15 12 7 4 1 2 6
12 14 14 15 15 13 11 8 7 7 9 12 13 13 14 15 17 17 17 19 18 19 20 22 22 23 25 26 26 27 27 24 21 19 17 13 11 8 4 3 5 8 12
13 13 15 14 14 14 13 10 8 8 8 10 12 12 12 13 16 17 17 19 21 22 22 21 20 19 20 22 24 25 24 23 21 16 12 10 8 6 6 7 10 13 16
13 13 13 14 14 15 13 12 10 10 11 11 11 12 13 13 13 14 15 15 17 18 19 19 19 19 21 22 23 23 23 21 17 12 9 9 8 8 10 13 15 17 20
15 14 15 14 14 15 15 13 12 12 12 13 13 13 12 12 12 12 11 11 12 13 15 16 17 19 20 20 22 23 21 18 14 10 9 10 12 14 16 17 18 20 24
17 14 14 17 15 16 16 16 15 14 12 12 13 15 16 17 16 14 13 13 14 13 13 13 14 16 18 19 21 22 19 16 14 13 13 15 17 18 19 20 22 25 29
15 12 10 13 17 15 15 16 15 15 14 13 12 13 14 16 17 17 17 16 16 16 14 15 15 16 17 19 21 20 19 17 17 18 19 20 20 20 21 22 24 27 28
16 14 11 8 9 15 15 14 15 14 14 13 11 11 12 14 16 19 20 20 18 16 16 16 16 16 18 20 22 22 22 23 23 22 22 22 22 24 25 27 29 30 31
20 17 15 13 11 10 12 15 15 14 13 13 14 14 14 15 17 18 20 19 17 17 17 18 17 17 19 21 23 24 25 26 26 25 25 25 26 28 29 31 32 35 35
24 21 20 18 17 15 13 14 14 14 14 14 15 15 17 17 17 16 17 17 17 16 17 17 19 20 20 21 23 27 28 28 28 27 27 28 30 31 33 35 37 36 38
28 25 23 24 24 22 21 17 16 16 16 16 16 16 17 19 19 19 18 17 16 15 15 16 18 21 22 24 25 27 29 29 30 31 31 32 34 32 34 34 39 37 37
32 28 26 24 25 28 26 25 25 22 20 18 17 15 15 17 19 21 21 20 19 19 19 19 19 19 21 25 28 30 30 30 32 32 33 36 42 41 43 39 37 45 35
34 32 29 28 24 22 23 26 31 33 30 27 23 22 22 20 18 19 21 22 22 22 21 22 22 24 26 25 25 27 30 39 35 35 41 47 51 50 48 46 48 46 28
36 35 35 32 30 27 27 26 27 31 36 34 30 28 28 22 20 22 22 21 23 25 26 26 26 28 27 29 29 34 33 35 33 37 44 45 48 48 45 44 49 39 20
36 33 34 34 31 28 26 27 25 26 26 28 27 26 26 24 22 21 23 24 25 27 27 29 30 31 30 31 33 36 37 38 36 38 42 46 48 47 46 50 41 29 20
35 31 30 30 31 29 25 24 23 23 23 23 25 26 26 25 24 23 23 26 27 28 31 35 37 37 38 39 42 42 42 39 41 42 42 49 51 41 39 45 29 21 21
Wind_Direction
239 251 297 302 341 338 339 347 143 140 141 137 139 153 152 148 145 142 139 141 146 158 157 152 145 143 153 164 194 197 189 188 199 187 165 164 162 174 164 174 157 138 147
225 224 139 337 360 357 21 83 140 148 140 136 142 150 150 146 146 146 145 124 138 144 159 158 152 143 140 159 177 202 203 192 203 170 170 166 166 157 166 173 190 175 176
199 140 115 56 52 54 83 108 127 143 143 141 150 149 146 140 137 145 146 132 131 134 140 142 145 154 145 147 114 177 189 181 176 169 161 168 178 171 174 186 180 178 194
164 127 122 98 89 92 95 115 115 122 129 135 144 145 146 139 137 141 137 126 141 148 141 141 133 148 142 166 152 134 148 157 174 177 143 168 178 179 156 153 165 178 200
141 133 128 112 119 112 98 106 109 113 116 121 129 138 147 148 148 147 142 132 137 145 138 136 128 123 121 123 152 139 159 165 170 164 166 172 141 141 144 156 173 187 183
135 139 130 131 136 128 116 107 109 119 118 121 128 137 140 150 151 153 158 154 148 157 155 141 137 135 131 120 126 147 132 150 138 154 123 130 140 151 156 162 165 164 164
141 147 143 140 152 142 135 114 106 103 119 116 120 134 147 151 155 144 163 169 171 170 168 159 141 136 124 112 148 139 129 116 119 129 137 144 148 151 154 157 155 151 154
150 151 143 146 158 132 136 127 116 110 106 110 107 122 131 161 184 183 135 143 154 157 143 155 150 147 140 123 119 134 131 133 138 142 146 146 147 147 146 146 144 140 139
157 159 149 149 149 146 143 135 126 112 104 122 115 121 129 85 120 136 128 125 142 143 144 143 146 151 143 136 136 140 141 143 143 143 142 141 142 142 141 138 139 144 137
155 167 163 157 155 154 151 145 134 120 114 120 137 128 122 108 136 104 132 108 104 134 150 154 146 146 152 151 149 144 142 141 142 143 142 140 137 136 136 131 128 110 58
158 162 174 178 172 166 165 149 137 128 134 125 133 142 137 130 130 131 129 125 117 118 150 151 151 152 158 157 154 151 149 150 149 148 147 145 143 142 143 149 201 295 308
163 157 167 178 190 185 178 169 156 147 147 139 138 141 145 142 139 142 139 135 133 139 144 148 151 155 157 158 159 159 156 158 159 156 157 163 166 170 191 249 290 294 298
178 166 158 169 178 181 179 176 168 164 160 153 147 149 152 147 146 146 146 147 148 150 155 159 164 165 166 165 166 168 165 165 166 172 176 181 192 217 251 269 282 298 299
196 195 177 169 173 171 170 173 175 166 166 166 162 159 159 158 155 151 150 151 152 155 160 165 169 171 173 176 176 176 175 175 183 190 199 215 238 264 277 285 290 292 298
201 202 205 192 184 174 167 169 171 173 168 166 171 175 176 172 166 164 161 161 164 166 171 176 181 183 185 188 187 187 190 196 204 213 228 247 260 269 275 282 288 294 296
203 202 205 209 205 190 180 178 175 177 179 179 176 175 178 184 189 188 189 192 190 190 193 194 196 199 201 201 198 200 207 218 228 236 247 259 263 270 277 283 289 292 302
184 186 190 204 212 215 202 190 183 182 184 187 188 190 195 199 200 203 203 205 209 212 208 207 206 207 208 210 210 215 224 234 240 247 254 260 266 272 280 285 288 296 306
180 176 174 173 186 213 214 206 200 193 188 187 195 203 206 216 218 218 223 226 228 230 224 225 222 218 216 216 220 226 233 241 249 256 261 264 269 276 284 289 293 297 300
198 195 193 190 188 198 205 207 207 206 201 200 203 208 212 220 228 234 239 247 249 245 240 235 233 232 229 227 229 233 240 247 253 259 263 266 271 278 283 287 290 297 306
208 210 209 207 206 206 212 218 217 211 209 214 219 221 228 231 234 238 245 250 252 254 254 245 237 235 237 240 240 239 243 249 255 262 267 270 275 281 284 287 291 296 296
219 219 223 221 217 219 217 221 223 226 223 222 224 229 234 237 240 242 241 242 244 246 245 246 245 243 240 239 241 250 257 258 259 263 269 273 277 279 287 290 283 268 279
224 226 223 221 224 222 227 227 226 227 227 227 224 228 235 240 244 245 245 245 244 240 235 234 233 233 237 247 250 250 251 259 264 267 270 272 268 267 269 275 275 278 260
220 223 225 224 221 226 232 236 233 227 231 233 233 241 247 248 253 254 252 250 248 246 241 238 235 236 236 245 252 257 267 275 269 267 262 261 293 280 278 268 273 279 253
221 223 225 227 230 232 237 240 242 238 233 233 236 237 246 253 256 256 250 246 242 239 238 239 238 240 243 248 252 272 267 267 275 263 273 275 280 286 271 293 272 252 211
222 218 222 225 225 230 236 237 240 241 235 231 232 236 241 241 242 250 253 250 248 245 242 243 247 244 245 250 256 261 263 262 268 268 266 268 275 279 278 290 280 246 183
214 214 217 230 229 228 229 230 230 231 231 231 235 236 241 241 243 244 249 251 253 253 252 255 258 258 253 256 258 260 261 264 265 271 266 269 276 279 282 297 245 199 185